User: anonymous   Login
Location: Bambrugge
(50.9212°N, 3.9299°E)
Time: 19:59:22
(UTC+00:00)
Language:

MSX - Orbit

View from above orbital plane
View from above orbital plane
View from above satellite
View from above satellite

Ground track
Ground track

The orbit data is extracted from the following two-line orbital elements,

1 23851U 96024A   24197.44741816 -.00000139  00000-0 -67183-4 0  9992
2 23851  98.9704 136.2087 0007669  17.3610 342.7814 13.98245364440272
Epoch (UTC): 15 July 2024 10:44:16
Eccentricity: 0.0007669
inclination: 98.9704°
perigee height: 894 km
apogee height: 905 km
right ascension of ascending node: 136.2087°
argument of perigee: 17.3610°
revolutions per day: 13.98245364
mean anomaly at epoch: 342.7814°
orbit number at epoch: 44027

The dashed part of the orbit path shows where the satellite is in the earth's shadow,  

DLR